GW5916 Weather Reports


time (UTC)temp
C
wind
direction
speed
KPH
gust
KPH
rain 1hr
cm
rain 24hr
cm
rain mn
cm
humidity
%
barometer
mb
20260502224650 17 241 3.2 9.7 0.00 0.00 0.00 33 1061.9
20260502224147 18 281 3.2 8.0 0.00 0.00 0.00 33 1061.9
20260502223645 17 227 3.2 8.0 0.00 0.00 0.00 33 1062.0
20260502223142 18 343 6.4 9.7 0.00 0.00 0.00 32 1061.9
20260502222639 18 217 3.2 12.9 0.00 0.00 0.00 33 1062.0
20260502222136 18 220 3.2 6.4 0.00 0.00 0.00 31 1062.0
20260502221632 18 304 4.8 6.4 0.00 0.00 0.00 32 1062.1
20260502221129 18 89 0.0 9.7 0.00 0.00 0.00 32 1062.1
20260502220626 18 267 3.2 11.3 0.00 0.00 0.00 32 1062.3
20260502220122 17 87 3.2 12.9 0.00 0.00 0.00 33 1062.3
20260502215619 17 73 4.8 9.7 0.00 0.00 0.00 33 1062.4
20260502215116 17 329 4.8 8.0 0.00 0.00 0.00 31 1062.4
20260502214613 17 276 6.4 11.3 0.00 0.00 0.00 33 1062.4
20260502214110 17 277 3.2 9.7 0.00 0.00 0.00 32 1062.5
20260502213608 18 61 3.2 6.4 0.00 0.00 0.00 32 1062.5
20260502213104 17 240 6.4 19.3 0.00 0.00 0.00 33 1062.8
20260502212603 17 75 1.6 11.3 0.00 0.00 0.00 34 1062.9
20260502212101 17 271 4.8 9.7 0.00 0.00 0.00 33 1062.7
20260502211556 18 315 6.4 9.7 0.00 0.00 0.00 31 1062.9
20260502211054 18 314 8.0 14.5 0.00 0.00 0.00 31 1062.9
20260502210550 17 312 6.4 19.3 0.00 0.00 0.00 31 1063.1
20260502210047 17 259 4.8 11.3 0.00 0.00 0.00 32 1063.1
20260502205544 17 267 3.2 14.5 0.00 0.00 0.00 31 1063.1
20260502205041 18 4 9.7 17.7 0.00 0.00 0.00 31 1063.2
20260502204538 17 238 4.8 16.1 0.00 0.00 0.00 31 1063.3
20260502204036 17 332 3.2 12.9 0.00 0.00 0.00 31 1063.4
20260502203532 17 50 3.2 17.7 0.00 0.00 0.00 32 1063.4
20260502203029 16 298 9.7 11.3 0.00 0.00 0.00 33 1063.6
20260502202525 16 351 3.2 11.3 0.00 0.00 0.00 33 1063.8
20260502202024 17 286 9.7 9.7 0.00 0.00 0.00 30 1063.8
20260502201520 17 264 6.4 17.7 0.00 0.00 0.00 30 1063.7
20260502201016 17 344 3.2 8.0 0.00 0.00 0.00 31 1064.0
20260502200512 17 261 4.8 16.1 0.00 0.00 0.00 30 1063.9
20260502200011 17 168 3.2 14.5 0.00 0.00 0.00 33 1064.0
20260502195508 17 316 3.2 8.0 0.00 0.00 0.00 32 1064.2
20260502195003 17 210 6.4 9.7 0.00 0.00 0.00 33 1064.2
20260502194500 16 188 1.6 9.7 0.00 0.00 0.00 30 1064.3
20260502193956 16 233 4.8 6.4 0.00 0.00 0.00 32 1064.5
20260502193454 16 53 1.6 14.5 0.00 0.00 0.00 33 1064.4
20260502192949 16 223 9.7 19.3 0.00 0.00 0.00 32 1064.5
20260502192446 16 326 1.6 17.7 0.00 0.00 0.00 32 1064.6
20260502191943 16 276 4.8 16.1 0.00 0.00 0.00 32 1064.8
20260502191441 16 222 14.5 17.7 0.00 0.00 0.00 32 1064.8
20260502190938 16 21 3.2 9.7 0.00 0.00 0.00 33 1064.8
20260502190435 16 143 3.2 8.0 0.00 0.00 0.00 33 1065.0
20260502185932 16 346 3.2 11.3 0.00 0.00 0.00 33 1065.1
20260502185427 16 302 3.2 17.7 0.00 0.00 0.00 33 1065.0
20260502184925 16 158 3.2 9.7 0.00 0.00 0.00 33 1065.2
20260502184420 16 220 8.0 22.5 0.00 0.00 0.00 33 1065.4
20260502183917 15 162 3.2 17.7 0.00 0.00 0.00 33 1065.6
20260502183413 16 228 3.2 24.1 0.00 0.00 0.00 33 1065.6
20260502182908 16 323 4.8 8.0 0.00 0.00 0.00 33 1065.5
20260502182404 15 290 3.2 11.3 0.00 0.00 0.00 33 1065.7
20260502181900 15 335 6.4 12.9 0.00 0.00 0.00 34 1065.9
20260502181359 15 259 6.4 12.9 0.00 0.00 0.00 34 1065.9
20260502180857 15 237 3.2 9.7 0.00 0.00 0.00 35 1066.0
20260502180354 14 223 4.8 19.3 0.00 0.00 0.00 34 1066.1
20260502170318 14 357 14.5 14.5 0.00 0.00 0.00 35 1066.7
20260502164306 13 352 6.4 14.5 0.00 0.00 0.00 34 1066.8
20260502163801 13 348 6.4 9.7 0.00 0.00 0.00 37 1066.9
20260502163258 13 18 3.2 12.9 0.00 0.00 0.00 36 1067.1
20260502162755 14 328 4.8 16.1 0.00 0.00 0.00 33 1066.9
20260502162252 14 267 8.0 9.7 0.00 0.00 0.00 35 1067.1
20260502161749 14 170 0.0 9.7 0.00 0.00 0.00 36 1067.0
20260502161246 13 319 3.2 17.7 0.00 0.00 0.00 37 1067.1
20260502160744 13 207 3.2 11.3 0.00 0.00 0.00 36 1067.0
20260502160243 13 312 6.4 14.5 0.00 0.00 0.00 35 1067.2
20260502152212 13 341 6.4 14.5 0.00 0.00 0.00 37 1067.3
20260502151709 12 329 8.0 16.1 0.00 0.00 0.00 37 1067.1
20260502151206 12 246 3.2 9.7 0.00 0.00 0.00 38 1067.5
20260502150703 12 96 6.4 19.3 0.00 0.00 0.00 38 1067.5
20260502150200 12 30 3.2 11.3 0.00 0.00 0.00 39 1067.5
20260502140123 11 313 0.0 9.7 0.00 0.00 0.00 47 1067.8
20260502130548 7 279 9.7 11.3 0.00 0.00 0.00 54 1067.9
20260502123531 6 85 3.2 4.8 0.00 0.00 0.00 57 1067.7
20260502123028 5 246 3.2 6.4 0.00 0.00 0.00 57 1067.7
20260502122525 5 182 1.6 6.4 0.00 0.00 0.00 58 1067.8
20260502122022 5 171 3.2 6.4 0.00 0.00 0.00 59 1067.7
20260502121519 5 207 3.2 4.8 0.00 0.00 0.00 59 1067.8
20260502121017 4 244 4.8 6.4 0.00 0.00 0.00 61 1067.7
20260502120513 3 280 1.6 6.4 0.00 0.00 0.00 62 1067.6
20260502115508 3 246 4.8 4.8 0.00 0.00 0.00 63 1067.7
20260502115003 2 339 3.2 4.8 0.00 0.00 0.00 65 1067.6
20260502114500 2 102 1.6 6.4 0.00 0.00 0.00 64 1067.4
20260502113957 2 236 0.0 3.2 0.00 0.00 0.00 64 1067.5
20260502113455 2 124 0.0 3.2 0.00 0.00 0.00 65 1067.4
20260502112953 2 289 0.0 3.2 0.00 0.00 0.00 66 1067.4
20260502112450 2 47 0.0 4.8 0.00 0.00 0.00 67 1067.4
20260502111948 1 276 3.2 3.2 0.00 0.00 0.00 69 1067.6
20260502111445 1 180 0.0 3.2 0.00 0.00 0.00 69 1067.5
20260502110942 1 175 3.2 4.8 0.00 0.00 0.00 68 1067.4
20260502110440 1 286 0.0 4.8 0.00 0.00 0.00 69 1067.6
20260502105937 1 238 3.2 3.2 0.00 0.00 0.00 68 1067.6
20260502105434 1 228 1.6 3.2 0.00 0.00 0.00 69 1067.5
20260502104932 1 121 0.0 3.2 0.00 0.00 0.00 68 1067.6
20260502104429 1 250 3.2 4.8 0.00 0.00 0.00 68 1067.4
20260502103926 1 50 1.6 4.8 0.00 0.00 0.00 69 1067.4
20260502103424 1 63 0.0 3.2 0.00 0.00 0.00 69 1067.4
20260502102921 1 349 0.0 3.2 0.00 0.00 0.00 69 1067.4
20260502102417 1 58 0.0 3.2 0.00 0.00 0.00 68 1067.5
20260502101915 1 136 3.2 3.2 0.00 0.00 0.00 68 1067.4
20260502101413 1 176 0.0 3.2 0.00 0.00 0.00 68 1067.5
20260502100911 1 190 3.2 3.2 0.00 0.00 0.00 68 1067.4
20260502100410 1 267 3.2 3.2 0.00 0.00 0.00 68 1067.6
20260502091343 1 241 3.2 3.2 0.00 0.00 0.00 67 1067.5
20260502090841 1 117 0.0 3.2 0.00 0.00 0.00 67 1067.5
20260502090338 1 201 0.0 1.6 0.00 0.00 0.00 67 1067.3
20260502071233 3 199 3.2 3.2 0.00 0.00 0.00 59 1067.6
20260502070731 3 213 0.0 3.2 0.00 0.00 0.00 59 1067.7
20260502070228 3 183 1.6 3.2 0.00 0.00 0.00 59 1067.6
20260502065727 2 194 1.6 1.6 0.00 0.00 0.00 61 1067.7
20260502065224 2 122 0.0 1.6 0.00 0.00 0.00 61 1067.7
20260502064723 2 198 0.0 3.2 0.00 0.00 0.00 60 1067.8
20260502064220 3 167 1.6 3.2 0.00 0.00 0.00 60 1067.8
20260502063717 2 217 1.6 3.2 0.00 0.00 0.00 60 1067.9
20260502063215 2 154 0.0 1.6 0.00 0.00 0.00 62 1067.7
20260502062712 2 84 0.0 3.2 0.00 0.00 0.00 60 1067.8
20260502062210 3 240 0.0 1.6 0.00 0.00 0.00 60 1067.8
20260502061708 3 180 0.0 3.2 0.00 0.00 0.00 59 1067.8
20260502061205 2 181 0.0 1.6 0.00 0.00 0.00 60 1067.8
20260502060700 3 214 0.0 1.6 0.00 0.00 0.00 60 1067.7
20260502060157 3 214 1.6 1.6 0.00 0.00 0.00 59 1067.8
20260502055655 3 293 0.0 3.2 0.00 0.00 0.00 58 1067.8
20260502055152 2 189 0.0 3.2 0.00 0.00 0.00 61 1067.8
20260502054652 2 224 0.0 1.6 0.00 0.00 0.00 62 1067.6
20260502054148 2 44 0.0 3.2 0.00 0.00 0.00 61 1067.6
20260502053645 2 103 0.0 1.6 0.00 0.00 0.00 62 1067.8
20260502053142 2 103 0.0 0.0 0.00 0.00 0.00 62 1067.8
20260502052641 2 62 0.0 1.6 0.00 0.00 0.00 64 1067.6
20260502052138 2 122 0.0 1.6 0.00 0.00 0.00 64 1067.7
20260502051636 2 157 0.0 1.6 0.00 0.00 0.00 63 1067.8
20260502051134 2 124 0.0 1.6 0.00 0.00 0.00 65 1067.7
20260502050630 1 99 0.0 3.2 0.00 0.00 0.00 68 1067.6
20260502050127 2 89 0.0 3.2 0.00 0.00 0.00 66 1067.7
20260502045623 2 69 0.0 1.6 0.00 0.00 0.00 67 1067.7
20260502045121 2 57 0.0 0.0 0.00 0.00 0.00 68 1067.7
20260502044617 2 119 0.0 1.6 0.00 0.00 0.00 66 1067.7
20260502044114 2 103 0.0 0.0 0.00 0.00 0.00 63 1067.6
20260502043612 2 117 0.0 1.6 0.00 0.00 0.00 63 1067.6
20260502043109 2 49 0.0 0.0 0.00 0.00 0.00 65 1067.4
20260502042608 2 59 0.0 1.6 0.00 0.00 0.00 64 1067.7
20260502042106 2 164 0.0 1.6 0.00 0.00 0.00 65 1067.6
20260502041604 2 129 0.0 1.6 0.00 0.00 0.00 64 1067.7
20260502041101 2 110 0.0 1.6 0.00 0.00 0.00 65 1067.7
20260502040557 2 102 0.0 1.6 0.00 0.00 0.00 65 1067.6
20260502040055 3 145 0.0 1.6 0.00 0.00 0.00 65 1067.5
20260502035550 2 38 0.0 1.6 0.00 0.00 0.00 65 1067.6
20260502035048 2 65 0.0 1.6 0.00 0.00 0.00 66 1067.6
20260502034546 3 110 0.0 1.6 0.00 0.00 0.00 66 1067.8
20260502034044 3 145 0.0 0.0 0.00 0.00 0.00 62 1067.6
20260502033542 3 135 0.0 1.6 0.00 0.00 0.00 63 1067.5
20260502033039 3 110 1.6 1.6 0.00 0.00 0.00 63 1067.6
20260502032535 3 110 0.0 1.6 0.00 0.00 0.00 65 1067.6
20260502032031 3 82 0.0 1.6 0.00 0.00 0.00 63 1067.7
20260502031530 3 89 0.0 1.6 0.00 0.00 0.00 60 1067.8
20260502031027 3 69 0.0 0.0 0.00 0.00 0.00 59 1067.5
20260502030526 4 124 0.0 1.6 0.00 0.00 0.00 59 1067.6
20260502030023 5 133 1.6 1.6 0.00 0.00 0.00 56 1067.5
20260502025520 5 149 0.0 1.6 0.00 0.00 0.00 55 1067.5
20260502025019 5 135 0.0 3.2 0.00 0.00 0.00 55 1067.6
20260502024515 5 140 0.0 1.6 0.00 0.00 0.00 58 1067.6
20260502024014 4 128 0.0 0.0 0.00 0.00 0.00 60 1067.7
20260502023511 5 80 0.0 1.6 0.00 0.00 0.00 58 1067.5
20260502023008 5 76 0.0 0.0 0.00 0.00 0.00 60 1067.7
20260502022505 5 96 1.6 3.2 0.00 0.00 0.00 56 1067.6
20260502022002 5 141 0.0 1.6 0.00 0.00 0.00 56 1067.4
20260502021459 5 131 0.0 1.6 0.00 0.00 0.00 53 1067.6
20260502020956 5 130 0.0 1.6 0.00 0.00 0.00 50 1067.5
20260502020454 6 96 1.6 3.2 0.00 0.00 0.00 49 1067.4
20260502015950 6 57 1.6 3.2 0.00 0.00 0.00 48 1067.4
20260502015448 6 35 0.0 3.2 0.00 0.00 0.00 48 1067.3
20260502014944 6 30 0.0 1.6 0.00 0.00 0.00 47 1067.3
20260502014442 7 46 0.0 3.2 0.00 0.00 0.00 46 1067.0
20260502013938 7 60 0.0 3.2 0.00 0.00 0.00 45 1067.0
20260502013434 7 114 0.0 3.2 0.00 0.00 0.00 45 1067.1
20260502012930 7 55 0.0 3.2 0.00 0.00 0.00 43 1066.9
20260502012428 7 108 0.0 3.2 0.00 0.00 0.00 44 1067.1
20260502011925 7 79 3.2 3.2 0.00 0.00 0.00 42 1066.9
20260502011422 7 69 0.0 3.2 0.00 0.00 0.00 44 1067.1
20260502010919 7 107 3.2 4.8 0.00 0.00 0.00 44 1066.8
20260502010415 8 68 3.2 3.2 0.00 0.00 0.00 44 1066.9
20260502005912 8 29 4.8 8.0 0.00 0.00 0.00 41 1066.8
20260502005410 8 27 6.4 9.7 0.00 0.00 0.00 41 1066.9
20260502004908 8 45 4.8 6.4 0.00 0.00 0.00 41 1066.8
20260502004403 8 52 3.2 4.8 0.00 0.00 0.00 41 1066.8
20260502003900 8 19 9.7 12.9 0.00 0.00 0.00 39 1066.7
20260502003358 8 37 3.2 9.7 0.00 0.00 0.00 39 1066.5
20260502002854 8 25 9.7 17.7 0.00 0.00 0.00 38 1066.7
20260502002351 9 24 9.7 12.9 0.00 0.00 0.00 39 1066.7
20260502001848 8 16 9.7 14.5 0.00 0.00 0.00 39 1066.4
20260502001346 9 19 9.7 16.1 0.00 0.00 0.00 38 1066.7
20260502000843 10 342 8.0 16.1 0.00 0.00 0.00 37 1066.6
20260502000342 9 12 9.7 17.7 0.00 0.00 0.00 38 1066.5
20260501235837 9 15 9.7 16.1 0.00 0.00 0.00 39 1066.5
20260501235333 9 353 6.4 11.3 0.00 0.00 0.00 39 1066.5
20260501234828 9 10 8.0 14.5 0.00 0.00 0.00 39 1066.6
20260501234326 9 28 6.4 11.3 0.00 0.00 0.00 39 1066.3
20260501233825 10 42 3.2 14.5 0.00 0.00 0.00 38 1066.5
20260501233321 9 28 8.0 8.0 0.00 0.00 0.00 39 1066.5
20260501232817 9 23 6.4 9.7 0.00 0.00 0.00 39 1066.5
20260501232314 9 15 6.4 9.7 0.00 0.00 0.00 38 1066.2
20260501231812 10 23 8.0 11.3 0.00 0.00 0.00 38 1066.3
20260501231310 10 348 4.8 9.7 0.00 0.00 0.00 35 1066.4
20260501230808 10 355 6.4 9.7 0.00 0.00 0.00 37 1066.4
20260501230306 10 11 4.8 8.0 0.00 0.00 0.00 37 1066.4
20260501225803 9 17 4.8 8.0 0.00 0.00 0.00 37 1066.5
20260501225301 9 349 9.7 12.9 0.00 0.00 0.00 37 1066.6
20260501224757 9 19 11.3 14.5 0.00 0.00 0.00 38 1066.4